FW9258 Weather Reports


Display with metric or nautical units.
time (UTC)temp
F
wind
direction
speed
MPH
gust
MPH
rain 1hr
in
rain 24hr
in
rain mn
in
humidity
%
barometer
mb
20260505072521 53 340 5.0 9.0 0.00 0.18 0.00 85 1015.8
20260505072015 53 333 2.0 8.0 0.00 0.18 0.00 85 1015.7
20260505071530 52 339 2.0 8.0 0.00 0.18 0.00 85 1015.8
20260505071016 51 14 4.0 8.0 0.00 0.18 0.00 84 1015.9
20260505070519 51 16 4.0 8.0 0.00 0.18 0.00 83 1015.9
20260505070037 51 356 5.0 8.0 0.00 0.18 0.00 84 1015.9
20260505065518 50 4 2.0 7.0 0.00 0.22 0.00 86 1015.9
20260505065014 50 335 0.0 2.0 0.00 0.22 0.00 87 1015.8
20260505064535 50 328 0.0 2.0 0.00 0.22 0.00 87 1015.8
20260505064015 50 336 0.0 2.0 0.00 0.22 0.00 87 1015.9
20260505063516 50 337 1.0 2.0 0.00 0.22 0.00 87 1015.8
20260505063030 50 0 0.0 3.0 0.00 0.22 0.00 88 1015.8
20260505062521 50 341 1.0 3.0 0.00 0.22 0.00 88 1015.7
20260505062015 50 338 1.0 3.0 0.00 0.22 0.00 88 1015.9
20260505061550 50 338 0.0 3.0 0.00 0.22 0.00 88 1015.8
20260505061015 50 340 1.0 4.0 0.00 0.22 0.00 88 1015.7
20260505060519 50 352 2.0 4.0 0.00 0.22 0.00 88 1015.8
20260505060035 50 345 1.0 3.0 0.00 0.22 0.00 88 1015.6
20260505055520 50 340 0.0 3.0 0.00 0.27 0.00 88 1015.7
20260505055016 50 0 1.0 3.0 0.00 0.27 0.00 88 1015.6
20260505054533 50 340 0.0 4.0 0.00 0.27 0.00 88 1015.7
20260505054018 50 340 1.0 4.0 0.00 0.27 0.00 88 1015.7
20260505053516 50 340 2.0 4.0 0.00 0.27 0.00 88 1015.6
20260505053039 50 340 1.0 6.0 0.00 0.27 0.00 88 1015.5
20260505052514 50 338 3.0 6.0 0.00 0.27 0.00 88 1015.6
20260505052015 50 349 2.0 6.0 0.00 0.27 0.00 88 1015.6
20260505051552 50 358 3.0 5.0 0.00 0.27 0.00 88 1015.4
20260505051018 50 356 3.0 6.0 0.00 0.27 0.00 88 1015.5
20260505050516 50 344 2.0 6.0 0.00 0.27 0.00 89 1015.4
20260505041533 51 343 2.0 5.0 0.00 0.44 0.00 90 1015.4
20260505041017 51 340 3.0 5.0 0.00 0.44 0.00 90 1015.3
20260505040516 51 338 2.0 5.0 0.00 0.44 0.00 90 1015.3
20260505040030 51 342 1.0 4.0 0.00 0.44 0.00 90 1015.3
20260505035516 51 338 1.0 3.0 0.00 0.44 0.00 90 1015.3
20260505035015 51 327 1.0 2.0 0.00 0.44 0.00 90 1015.3
20260505034533 51 338 0.0 3.0 0.00 0.44 0.00 90 1015.3
20260505034015 51 338 1.0 3.0 0.00 0.44 0.00 90 1015.3
20260505033515 51 354 1.0 3.0 0.00 0.44 0.00 90 1015.3
20260505033032 51 346 1.0 3.0 0.00 0.44 0.00 90 1015.3
20260505032514 52 337 0.0 4.0 0.00 0.44 0.00 89 1015.4
20260505032015 52 338 1.0 5.0 0.00 0.44 0.00 89 1015.3
20260505031530 52 345 3.0 5.0 0.00 0.44 0.00 90 1015.3
20260505031015 52 1 2.0 4.0 0.00 0.44 0.00 90 1015.3
20260505030516 52 338 2.0 5.0 0.00 0.44 0.00 90 1015.3
20260505030036 52 342 2.0 5.0 0.00 0.44 0.00 90 1015.3
20260505025516 52 342 2.0 5.0 0.00 0.44 0.00 90 1015.3
20260505025015 52 352 3.0 5.0 0.00 0.44 0.00 90 1015.2
20260505024533 52 348 3.0 5.0 0.00 0.44 0.00 90 1015.2
20260505024015 52 349 2.0 4.0 0.00 0.44 0.00 90 1015.2
20260505023515 52 349 1.0 4.0 0.00 0.44 0.00 90 1015.2
20260505023032 52 340 1.0 4.0 0.00 0.44 0.00 91 1015.3
20260505022516 52 338 1.0 4.0 0.00 0.44 0.00 91 1015.3
20260505022017 52 342 1.0 4.0 0.00 0.44 0.00 91 1015.3
20260505021534 52 339 1.0 4.0 0.00 0.44 0.00 91 1015.3
20260505021015 52 342 1.0 4.0 0.00 0.44 0.00 91 1015.3
20260505020515 52 347 1.0 4.0 0.00 0.44 0.00 91 1015.4
20260505020031 52 339 1.0 4.0 0.00 0.44 0.00 91 1015.3
20260505015515 52 345 2.0 4.0 0.00 0.44 0.00 91 1015.4
20260505015015 52 338 1.0 4.0 0.00 0.44 0.00 91 1015.4
20260505014530 52 342 2.0 4.0 0.00 0.44 0.00 91 1015.4
20260505014019 52 342 1.0 4.0 0.00 0.44 0.00 91 1015.4
20260505013515 52 356 1.0 4.0 0.00 0.44 0.00 90 1015.5
20260505013033 52 339 2.0 4.0 0.00 0.44 0.00 90 1015.5
20260505012515 52 346 2.0 4.0 0.00 0.44 0.00 90 1015.4
20260505012016 52 339 2.0 4.0 0.00 0.44 0.00 90 1015.5
20260505011534 52 338 1.0 5.0 0.00 0.44 0.00 90 1015.5
20260505011015 52 342 3.0 5.0 0.00 0.44 0.00 91 1015.7
20260505010517 52 350 2.0 5.0 0.00 0.44 0.00 91 1015.7
20260505010037 52 344 1.0 3.0 0.00 0.44 0.00 91 1015.7
20260505005517 52 338 2.0 4.0 0.00 0.44 0.00 91 1015.7
20260505005017 52 330 1.0 5.0 0.00 0.44 0.00 91 1015.7
20260505004530 52 338 2.0 5.0 0.00 0.44 0.00 91 1015.6
20260505004016 52 341 2.0 5.0 0.00 0.44 0.00 91 1015.7
20260505003518 52 346 2.0 5.0 0.00 0.44 0.00 91 1015.7
20260505003033 52 339 3.0 5.0 0.00 0.44 0.00 91 1015.8
20260505002515 52 354 2.0 5.0 0.00 0.44 0.00 91 1015.7
20260505002015 52 13 2.0 5.0 0.00 0.44 0.00 90 1015.8
20260505001533 52 346 2.0 5.0 0.00 0.44 0.00 90 1015.8
20260505001014 52 348 1.0 4.0 0.00 0.44 0.00 90 1015.9
20260505000515 52 346 2.0 4.0 0.00 0.44 0.00 90 1015.9
20260505000030 52 336 1.0 4.0 0.00 0.44 0.00 90 1015.9
20260504235515 52 347 1.0 5.0 0.00 0.44 0.00 90 1015.9
20260504235016 52 338 1.0 5.0 0.00 0.44 0.00 90 1016.0
20260504234534 52 346 0.0 2.0 0.00 0.44 0.00 90 1015.9
20260504234015 52 0 0.0 4.0 0.00 0.44 0.00 90 1015.9
20260504233515 52 339 0.0 4.0 0.00 0.44 0.00 90 1015.9
20260504233033 52 345 1.0 5.0 0.00 0.44 0.00 90 1016.0
20260504232516 52 344 2.0 5.0 0.00 0.44 0.00 90 1015.9
20260504232015 52 7 2.0 6.0 0.00 0.44 0.00 90 1015.9
20260504231531 52 345 3.0 8.0 0.00 0.44 0.00 90 1015.9
20260504231013 52 346 3.0 8.0 0.00 0.44 0.00 90 1015.8
20260504230517 52 347 4.0 7.0 0.00 0.44 0.00 90 1015.8
20260504230039 52 352 3.0 6.0 0.00 0.44 0.00 89 1015.8
20260504225518 52 11 2.0 5.0 0.00 0.44 0.44 89 1015.8
20260504225015 52 343 2.0 6.0 0.00 0.44 0.44 89 1015.9
20260504224532 52 340 3.0 6.0 0.00 0.44 0.44 89 1015.8
20260504224016 52 340 4.0 7.0 0.00 0.44 0.44 89 1015.9
20260504223517 53 28 3.0 7.0 0.00 0.44 0.44 89 1016.0
20260504223030 52 6 4.0 7.0 0.00 0.44 0.44 89 1016.0
20260504222516 53 357 4.0 7.0 0.00 0.44 0.44 89 1016.0
20260504222017 53 350 4.0 7.0 0.00 0.44 0.44 89 1015.9
20260504221532 53 13 3.0 7.0 0.00 0.44 0.44 89 1015.9
20260504221015 53 341 3.0 7.0 0.00 0.44 0.44 88 1015.9
20260504220518 53 351 3.0 7.0 0.00 0.44 0.44 88 1016.0
20260504220035 53 348 3.0 7.0 0.00 0.44 0.44 88 1016.0
20260504215515 53 340 4.0 7.0 0.00 0.44 0.44 89 1016.0
20260504215016 53 10 3.0 6.0 0.00 0.44 0.44 89 1016.0
20260504214533 52 340 3.0 5.0 0.00 0.44 0.44 89 1016.0
20260504214017 52 337 2.0 5.0 0.00 0.44 0.44 89 1016.0
20260504213515 52 330 3.0 5.0 0.00 0.44 0.44 89 1016.0
20260504213030 52 333 2.0 7.0 0.00 0.44 0.44 89 1016.0
20260504212516 52 330 3.0 7.0 0.00 0.44 0.44 89 1016.0
20260504212015 52 335 3.0 6.0 0.00 0.44 0.44 89 1016.0
20260504211536 52 347 4.0 6.0 0.00 0.44 0.44 89 1016.0
20260504211015 52 335 2.0 5.0 0.00 0.44 0.44 88 1016.1
20260504210519 52 340 2.0 5.0 0.00 0.44 0.44 88 1016.0
20260504210037 52 333 3.0 5.0 0.00 0.44 0.44 88 1016.1
20260504205514 52 349 2.0 4.0 0.00 0.44 0.44 88 1016.1
20260504205014 52 326 2.0 5.0 0.00 0.44 0.44 88 1016.2
20260504204536 53 318 2.0 5.0 0.00 0.44 0.44 87 1016.0
20260504204018 53 321 3.0 6.0 0.00 0.44 0.44 87 1016.0
20260504203517 53 324 3.0 6.0 0.00 0.44 0.44 87 1016.1
20260504203049 53 326 4.0 6.0 0.00 0.44 0.44 87 1016.0
20260504202518 53 352 4.0 6.0 0.00 0.44 0.44 87 1016.1
20260504202017 53 339 3.0 8.0 0.00 0.44 0.44 87 1015.9
20260504201533 53 339 4.0 8.0 0.00 0.44 0.44 87 1015.8
20260504201023 53 5 5.0 8.0 0.00 0.44 0.44 87 1015.7
20260504200515 53 330 5.0 8.0 0.00 0.44 0.44 87 1015.7
20260504200030 53 340 5.0 9.0 0.00 0.44 0.44 87 1015.7
20260504195515 53 339 5.0 9.0 0.00 0.44 0.44 86 1015.6
20260504195016 53 1 5.0 9.0 0.00 0.44 0.44 86 1015.5
20260504194535 53 330 5.0 8.0 0.00 0.44 0.44 87 1015.6
20260504194017 53 354 5.0 8.0 0.00 0.44 0.44 87 1015.5
20260504193517 54 329 5.0 8.0 0.00 0.44 0.44 87 1015.5
20260504193035 53 339 5.0 8.0 0.00 0.44 0.44 87 1015.5
20260504192516 54 311 4.0 7.0 0.00 0.44 0.44 87 1015.4
20260504192013 54 327 4.0 8.0 0.00 0.44 0.44 87 1015.4
20260504191534 54 336 5.0 8.0 0.00 0.44 0.44 87 1015.4
20260504191017 54 321 5.0 8.0 0.00 0.44 0.44 87 1015.3
20260504190517 54 328 5.0 9.0 0.00 0.44 0.44 88 1015.3
20260504190042 54 335 5.0 9.0 0.00 0.44 0.44 88 1015.3
20260504185516 54 341 5.0 8.0 0.00 0.44 0.44 88 1015.3
20260504185017 54 329 5.0 8.0 0.00 0.44 0.44 88 1015.2
20260504184533 54 338 5.0 8.0 0.00 0.44 0.44 88 1015.2
20260504184017 54 323 5.0 9.0 0.00 0.44 0.44 88 1015.1
20260504183516 54 328 6.0 10.0 0.00 0.44 0.44 87 1015.3
20260504183033 55 4 5.0 10.0 0.00 0.44 0.44 87 1015.2
20260504182526 55 331 6.0 10.0 0.00 0.44 0.44 87 1015.2
20260504182022 55 323 4.0 8.0 0.00 0.44 0.44 87 1015.2
20260504181534 55 314 4.0 9.0 0.00 0.44 0.44 87 1015.2
20260504181015 55 326 5.0 9.0 0.00 0.44 0.44 87 1015.2
20260504180515 56 324 5.0 9.0 0.00 0.44 0.44 86 1015.2
20260504180034 56 349 5.0 10.0 0.00 0.44 0.44 86 1015.2
20260504175513 56 343 6.0 12.0 0.00 0.45 0.44 86 1015.1
20260504175016 57 328 6.0 13.0 0.00 0.45 0.44 86 1015.1
20260504174533 57 335 6.0 13.0 0.00 0.45 0.44 86 1015.1
20260504174013 57 352 7.0 12.0 0.00 0.45 0.44 87 1015.0
20260504173518 57 343 7.0 11.0 0.00 0.45 0.44 88 1014.9
20260504173032 57 315 7.0 11.0 0.00 0.45 0.44 88 1015.0
20260504172517 57 330 7.0 11.0 0.00 0.45 0.44 89 1014.9
20260504172016 56 311 7.0 11.0 0.00 0.45 0.44 89 1015.0
20260504171532 56 310 7.0 10.0 0.00 0.45 0.44 89 1015.1
20260504171018 56 337 6.0 10.0 0.00 0.45 0.44 89 1015.1
20260504170515 56 309 7.0 10.0 0.00 0.45 0.44 88 1015.1
20260504151017 54 311 5.0 8.0 0.00 0.45 0.44 93 1015.2
20260504150516 54 318 4.0 9.0 0.00 0.45 0.44 93 1015.3
20260504141015 55 323 5.0 8.0 0.00 0.44 0.44 91 1015.5
20260504140520 55 316 5.0 8.0 0.00 0.44 0.44 90 1015.5
20260504130519 56 0 0.0 1.0 0.04 0.44 0.44 92 1015.7
20260504110519 54 317 1.0 4.0 0.00 0.37 0.36 93 1015.5
20260504100517 53 17 2.0 4.0 0.07 0.37 0.36 94 1015.4
20260504081536 53 333 0.0 5.0 0.00 0.28 0.25 94 1014.5
20260504081014 53 340 1.0 5.0 0.00 0.28 0.25 94 1014.6
20260504080514 53 338 0.0 4.0 0.00 0.28 0.25 94 1014.5